TimeCDT,TemperatureF,Dew PointF,Humidity,Sea Level PressureIn,VisibilityMPH,Wind Direction,Wind SpeedMPH,Gust SpeedMPH,PrecipitationIn,Events,Conditions,WindDirDegrees,DateUTC
12:15 AM,55.4,53.6,94,29.69,7.0,SSE,11.5,-,N/A,,Overcast,150,2013-10-31 05:15:00
12:35 AM,57.2,53.6,88,29.68,7.0,SSE,10.4,-,N/A,,Overcast,160,2013-10-31 05:35:00
12:55 AM,57.2,55.4,94,29.67,7.0,SSE,9.2,-,N/A,,Overcast,160,2013-10-31 05:55:00
1:15 AM,59.0,55.4,88,29.66,7.0,SSE,9.2,-,N/A,,Overcast,160,2013-10-31 06:15:00
1:35 AM,59.0,55.4,88,29.65,5.0,SSE,8.1,-,N/A,,Overcast,160,2013-10-31 06:35:00
1:55 AM,59.0,55.4,88,29.64,5.0,SSE,9.2,-,N/A,,Overcast,160,2013-10-31 06:55:00
2:15 AM,59.0,55.4,88,29.63,7.0,SSE,8.1,-,N/A,,Overcast,160,2013-10-31 07:15:00
2:35 AM,59.0,55.4,88,29.62,7.0,South,9.2,-,N/A,,Overcast,170,2013-10-31 07:35:00
2:55 AM,59.0,57.2,94,29.61,7.0,South,8.1,-,N/A,,Overcast,180,2013-10-31 07:55:00
3:15 AM,60.8,57.2,88,29.59,4.0,South,8.1,-,N/A,Rain,Light Rain,180,2013-10-31 08:15:00
3:35 AM,60.8,59.0,94,29.58,4.0,South,10.4,-,0.01,,Overcast,190,2013-10-31 08:35:00
3:55 AM,60.8,59.0,94,29.57,4.0,South,11.5,-,0.01,,Overcast,190,2013-10-31 08:55:00
4:15 AM,60.8,59.0,94,29.56,3.0,South,9.2,-,0.01,Rain,Light Rain,190,2013-10-31 09:15:00
4:35 AM,60.8,59.0,94,29.55,4.0,South,11.5,17.3,0.04,Rain,Rain,190,2013-10-31 09:35:00
4:55 AM,60.8,59.0,94,29.54,2.5,SSW,16.1,21.9,0.04,Rain,Light Rain,200,2013-10-31 09:55:00
5:15 AM,60.8,59.0,94,29.53,3.0,SSW,12.7,23.0,0.01,Rain,Light Rain,200,2013-10-31 10:15:00
5:35 AM,60.8,59.0,94,29.53,3.0,SSW,11.5,18.4,0.01,Rain,Rain,200,2013-10-31 10:35:00
5:55 AM,60.8,59.0,94,29.54,2.5,SW,8.1,-,0.02,Rain,Light Rain,220,2013-10-31 10:55:00
6:15 AM,60.8,59.0,94,29.53,2.5,SSW,11.5,-,0.01,Rain,Heavy Rain,210,2013-10-31 11:15:00
6:35 AM,60.8,59.0,94,29.52,3.0,SSW,10.4,-,0.03,Rain,Light Rain,210,2013-10-31 11:35:00
6:55 AM,60.8,59.0,94,29.51,2.5,SSW,8.1,-,0.04,Rain,Light Rain,210,2013-10-31 11:55:00
7:15 AM,60.8,59.0,94,29.51,2.5,SW,6.9,-,N/A,Rain,Light Rain,220,2013-10-31 12:15:00
7:35 AM,60.8,59.0,94,29.50,3.0,SW,6.9,-,N/A,Rain,Light Rain,230,2013-10-31 12:35:00
7:55 AM,60.8,59.0,94,29.50,1.5,SW,5.8,-,N/A,,Overcast,230,2013-10-31 12:55:00
8:15 AM,60.8,59.0,94,29.51,1.2,WSW,6.9,-,N/A,Rain,Light Rain,240,2013-10-31 13:15:00
8:35 AM,60.8,59.0,94,29.51,4.0,West,4.6,-,N/A,,Overcast,270,2013-10-31 13:35:00
8:55 AM,60.8,59.0,94,29.50,4.0,West,3.5,-,N/A,,Overcast,280,2013-10-31 13:55:00
9:15 AM,60.8,59.0,94,29.49,5.0,West,6.9,-,N/A,,Overcast,260,2013-10-31 14:15:00
9:35 AM,60.8,59.0,94,29.48,2.5,WSW,5.8,-,N/A,,Overcast,240,2013-10-31 14:35:00
9:55 AM,59.0,57.2,94,29.48,7.0,West,11.5,-,N/A,,Overcast,260,2013-10-31 14:55:00
10:15 AM,59.0,57.2,94,29.47,2.0,West,10.4,-,N/A,,Overcast,270,2013-10-31 15:15:00
10:35 AM,59.0,57.2,94,29.46,7.0,West,9.2,-,N/A,,Overcast,280,2013-10-31 15:35:00
10:55 AM,59.0,57.2,94,29.45,10.0,West,12.7,-,N/A,,Overcast,270,2013-10-31 15:55:00
11:15 AM,59.0,57.2,94,29.44,7.0,West,9.2,-,N/A,,Overcast,270,2013-10-31 16:15:00
11:35 AM,59.0,55.4,88,29.44,10.0,West,8.1,-,N/A,,Overcast,270,2013-10-31 16:35:00
11:55 AM,59.0,55.4,88,29.43,10.0,West,9.2,-,N/A,,Overcast,270,2013-10-31 16:55:00
12:15 PM,59.0,55.4,88,29.41,7.0,WSW,6.9,-,N/A,,Overcast,250,2013-10-31 17:15:00
12:35 PM,59.0,55.4,88,29.40,0.2,West,10.4,-,N/A,Fog,Fog,270,2013-10-31 17:35:00
12:55 PM,59.0,55.4,88,29.40,7.0,West,11.5,-,N/A,,Overcast,260,2013-10-31 17:55:00
1:15 PM,57.2,55.4,94,29.39,1.5,WSW,17.3,-,N/A,,Overcast,250,2013-10-31 18:15:00
1:35 PM,55.4,53.6,94,29.39,1.0,West,12.7,-,0.01,Rain,Rain,260,2013-10-31 18:35:00
1:55 PM,53.6,51.8,94,29.38,0.8,West,10.4,-,0.02,Rain,Rain,260,2013-10-31 18:55:00
2:15 PM,53.6,51.8,94,29.37,2.0,West,11.5,-,0.01,Rain,Light Rain,270,2013-10-31 19:15:00
2:35 PM,51.8,50.0,94,29.36,2.0,West,17.3,-,0.01,Rain,Light Rain,270,2013-10-31 19:35:00
2:55 PM,51.8,50.0,94,29.36,5.0,West,11.5,-,0.01,,Overcast,280,2013-10-31 19:55:00
3:15 PM,50.0,48.2,94,29.35,1.0,West,11.5,-,N/A,,Overcast,270,2013-10-31 20:15:00
3:35 PM,50.0,46.4,87,29.35,0.2,West,12.7,18.4,N/A,Rain,Light Rain,280,2013-10-31 20:35:00
3:55 PM,50.0,46.4,87,29.34,7.0,WNW,8.1,-,N/A,,Overcast,300,2013-10-31 20:55:00
4:15 PM,48.2,46.4,93,29.34,7.0,West,11.5,-,N/A,,Unknown,280,2013-10-31 21:15:00
4:35 PM,46.4,44.6,93,29.34,7.0,West,12.7,-,N/A,,Overcast,280,2013-10-31 21:35:00
4:55 PM,46.4,44.6,93,29.34,7.0,WNW,11.5,18.4,N/A,,Overcast,300,2013-10-31 21:55:00
5:15 PM,46.4,44.6,93,29.34,10.0,West,13.8,19.6,N/A,,Overcast,280,2013-10-31 22:15:00
5:35 PM,46.4,42.8,87,29.35,10.0,WNW,15.0,20.7,N/A,,Overcast,290,2013-10-31 22:35:00
5:55 PM,46.4,42.8,87,29.35,10.0,WNW,11.5,20.7,N/A,,Overcast,290,2013-10-31 22:55:00
6:15 PM,46.4,42.8,87,29.35,10.0,WNW,9.2,19.6,N/A,,Overcast,290,2013-10-31 23:15:00
6:35 PM,44.6,42.8,93,29.35,10.0,West,13.8,-,N/A,,Overcast,280,2013-10-31 23:35:00
6:55 PM,44.6,41.0,87,29.36,10.0,WNW,12.7,23.0,N/A,,Overcast,290,2013-10-31 23:55:00
7:15 PM,44.6,41.0,87,29.37,10.0,West,15.0,21.9,N/A,,Overcast,280,2013-11-01 00:15:00
7:35 PM,44.6,39.2,81,29.37,10.0,West,12.7,19.6,N/A,,Overcast,280,2013-11-01 00:35:00
7:55 PM,44.6,39.2,81,29.36,10.0,West,12.7,-,N/A,,Overcast,280,2013-11-01 00:55:00
8:15 PM,44.6,37.4,76,29.35,10.0,WNW,10.4,17.3,N/A,,Overcast,290,2013-11-01 01:15:00
8:35 PM,42.8,39.2,87,29.35,10.0,West,11.5,-,N/A,,Overcast,280,2013-11-01 01:35:00
8:55 PM,42.8,39.2,87,29.35,10.0,West,11.5,-,N/A,,Overcast,270,2013-11-01 01:55:00
9:15 PM,42.8,39.2,87,29.35,10.0,West,16.1,-,N/A,,Overcast,270,2013-11-01 02:15:00
9:35 PM,42.8,37.4,81,29.35,10.0,West,16.1,-,N/A,,Overcast,270,2013-11-01 02:35:00
9:55 PM,42.8,37.4,81,29.35,10.0,West,15.0,-,N/A,,Overcast,270,2013-11-01 02:55:00
10:15 PM,42.8,37.4,81,29.35,10.0,West,15.0,23.0,N/A,,Overcast,270,2013-11-01 03:15:00
10:35 PM,42.8,37.4,81,29.36,10.0,West,16.1,21.9,N/A,,Overcast,260,2013-11-01 03:35:00
10:55 PM,42.8,37.4,81,29.37,10.0,West,15.0,-,N/A,,Overcast,270,2013-11-01 03:55:00
11:15 PM,42.8,37.4,81,29.38,10.0,West,17.3,21.9,N/A,,Overcast,270,2013-11-01 04:15:00
11:35 PM,42.8,37.4,81,29.38,10.0,West,13.8,-,N/A,,Overcast,260,2013-11-01 04:35:00
11:55 PM,42.8,37.4,81,29.38,10.0,West,16.1,-,N/A,,Overcast,260,2013-11-01 04:55:00